Location: Głuchołazy
(50.3169°N, 17.3829°E)
Time: 22:25:42
(UTC+01:00)

ISS - Visible Passes

Search period start: 19 January 2018 00:00
Search period end: 29 January 2018 00:00
Orbit: 402 x 407 km, 51.6° (Epoch: 20 January)

Date Brightness Start Highest point End Pass type
(mag) Time Alt. Az. Time Alt. Az. Time Alt. Az.
26 Jan -1.6 18:55:00 10° SSW 18:56:11 18° SSW 18:56:11 18° SSW visible
27 Jan -2.1 18:03:15 10° S 18:05:40 19° SE 18:06:11 19° SE visible
27 Jan -0.6 19:38:30 10° WSW 19:38:51 12° WSW 19:38:51 12° WSW visible
28 Jan -1.4 17:12:09 10° SSE 17:13:31 12° SE 17:14:53 10° ESE visible
28 Jan -3.0 18:46:13 10° SW 18:48:46 43° SSW 18:48:46 43° SSW visible
